Danville, VA

10:58 PM EDT on April 27, 2017 (GMT -0400)
Danville Regional

Weather History for KDAN - February, 2015

Change the Weather History Date:

Saturday, February 7, 2015

  Actual Average Record
Temperature  
Mean Temperature 42 °F 40 °F  
Max Temperature 60 °F 48 °F 74 °F (2017)
Min Temperature 23 °F 31 °F 12 °F (1966)
Degree Days  
Heating Degree Days 23 26  
Month to date heating degree days 189 182  
Since 1 July heating degree days 2443 2510  
Cooling Degree Days 0 0  
Month to date cooling degree days 0 0  
Year to date cooling degree days 0 0  
Moisture  
Dew Point 16 °F    
Average Humidity 42    
Maximum Humidity 68    
Minimum Humidity 15    
Precipitation  
Precipitation 0.00 in 0.10 in 1.37 in (1955)
Month to date precipitation 0.44 0.80  
Year to date precipitation 1.95 4.22  
Snow  
Snow 0.00 in - - ()
Month to date snowfall 0.0  
Since 1 July snowfall T  
Snow Depth 0.00 in    
Sea Level Pressure  
Sea Level Pressure 30.13 in    
Wind  
Wind Speed 6 mph (SW)    
Max Wind Speed 18 mph    
Max Gust Speed 23 mph    
Visibility 10 miles    
Events      
T = Trace of Precipitation, MM = Missing Value Source: NWS Daily Summary

Daily Weather History Graph

Daily Weather History Graph

Search for Another Location

Airport or City:

Trip Planner

Search our weather history database for the weather conditions in past years. The results will help you decide how hot, cold, wet, or windy it might be!

Date:

Astronomy

Feb. 07, 2015 Rise Set
Actual Time 7:13 AM EST 5:49 PM EST
Civil Twilight 6:47 AM EST 6:16 PM EST
Nautical Twilight 6:16 AM EST 6:46 PM EST
Astronomical Twilight 5:46 AM EST 7:17 PM EST
Moon 9:24 PM EST (2/7) 8:55 AM EST (2/7)
Length of Visible Light 11h 29m
Length of Day
10h 35m
Waning Gibbous, 88% of the Moon is Illuminated
Feb 7
Waning Gibbous
Feb 11
Last Quarter
Feb 18
New
Feb 25
First Quarter
Mar 5
Full

Hourly Weather History & Observations

Time (EST) Temp. Windchill Dew Point Humidity Pressure Visibility Wind Dir Wind Speed Gust Speed Precip Events Conditions
12:53 AM 26.1 °F 21.9 °F 12.0 °F 55% 30.26 in 10.0 mi SW 3.5 mph - N/A   Clear
1:53 AM 26.1 °F 21.9 °F 12.9 °F 58% 30.24 in 10.0 mi WSW 3.5 mph - N/A   Clear
2:53 AM 25.0 °F - 12.9 °F 60% 30.22 in 10.0 mi Calm Calm - N/A   Clear
3:53 AM 24.1 °F 19.7 °F 15.1 °F 69% 30.22 in 10.0 mi WSW 3.5 mph - N/A   Overcast
4:53 AM 24.1 °F 18.2 °F 15.1 °F 69% 30.22 in 10.0 mi WSW 4.6 mph - N/A   Scattered Clouds
5:53 AM 25.0 °F 20.7 °F 15.1 °F 66% 30.21 in 10.0 mi West 3.5 mph - N/A   Clear
6:53 AM 24.1 °F 18.2 °F 15.1 °F 69% 30.21 in 10.0 mi West 4.6 mph - N/A   Clear
7:53 AM 27.0 °F 23.0 °F 15.1 °F 61% 30.22 in 10.0 mi WSW 3.5 mph - N/A   Clear
8:53 AM 33.1 °F 28.7 °F 17.1 °F 52% 30.22 in 10.0 mi SSW 4.6 mph - N/A   Clear
9:53 AM 36.0 °F 32.1 °F 17.1 °F 46% 30.22 in 10.0 mi SW 4.6 mph - N/A   Clear
10:53 AM 42.1 °F 37.7 °F 16.0 °F 35% 30.20 in 10.0 mi SW 6.9 mph - N/A   Clear
11:53 AM 48.0 °F - 15.1 °F 27% 30.17 in 10.0 mi SW 8.1 mph - N/A   Clear
12:53 PM 53.1 °F - 14.0 °F 21% 30.13 in 10.0 mi SW 6.9 mph - N/A   Clear
1:53 PM 57.0 °F - 10.0 °F 15% 30.08 in 10.0 mi SW 10.4 mph 20.7 mph N/A   Clear
2:53 PM 59.0 °F - 12.9 °F 16% 30.04 in 10.0 mi SW 12.7 mph 18.4 mph N/A   Clear
3:53 PM 59.0 °F - 14.0 °F 17% 30.01 in 10.0 mi SSW 10.4 mph 21.9 mph N/A   Clear
4:53 PM 57.9 °F - 17.1 °F 20% 30.02 in 10.0 mi SSW 8.1 mph - N/A   Clear
5:53 PM 55.0 °F - 17.1 °F 23% 30.04 in 10.0 mi SW 13.8 mph - N/A   Clear
6:53 PM 50.0 °F - 18.0 °F 28% 30.04 in 10.0 mi SSW 6.9 mph - N/A   Clear
7:53 PM 46.9 °F - 19.0 °F 33% 30.05 in 10.0 mi SW 6.9 mph - N/A   Clear
8:53 PM 43.0 °F 40.3 °F 19.0 °F 38% 30.05 in 10.0 mi SSW 4.6 mph - N/A   Clear
9:53 PM 48.0 °F - 19.9 °F 33% 30.04 in 10.0 mi SSW 8.1 mph - N/A   Clear
10:53 PM 43.0 °F 39.5 °F 21.0 °F 42% 30.02 in 10.0 mi SSW 5.8 mph - N/A   Clear
11:53 PM 43.0 °F 38.8 °F 21.0 °F 42% 30.01 in 10.0 mi SSW 6.9 mph - N/A   Clear